Waarnemingen

Advertentie
Mijn weer
Timrå/Midlanda, Zweden (2366): temperatuur & dauwpunt: 18.07.2019 00:00:00 - 24.07.2019 00:00:00 (CEST)Timrå/Midlanda, Zweden (2366): windsnelheid: 18.07.2019 00:00:00 - 24.07.2019 00:00:00 (CEST)Timrå/Midlanda, Zweden (2366): windrichting: 18.07.2019 00:00:00 - 24.07.2019 00:00:00 (CEST)Timrå/Midlanda, Zweden (2366): luchtdruk: 18.07.2019 00:00:00 - 24.07.2019 00:00:00 (CEST)Timrå/Midlanda, Zweden (2366): zicht: 18.07.2019 00:00:00 - 24.07.2019 00:00:00 (CEST)
Datum & Tijd tt [°C] td [°C] ff [km/u] ff [kn] dd ppp [hPa] vv [km]
24.07.2019 00:00:00 14,1 14,1 2 1 NNW 1017,5 0,2
23.07.2019 23:00:00 15,3 15,0 0 0 N 1017,1 0,2
23.07.2019 22:00:00 16,7 15,9 2 1 - 1016,7 10
23.07.2019 21:00:00 18,2 16,0 5 3 ZZO 1016,3 10
23.07.2019 20:00:00 19,2 15,1 8 4 ZO 1016,4 10
23.07.2019 19:00:00 20,0 15,6 4 2 - 1016,0 10
23.07.2019 18:00:00 19,9 15,4 13 7 ZO 1015,6 10
23.07.2019 17:00:00 20,4 15,9 9 5 ZZO 1015,5 10
23.07.2019 16:00:00 20,3 15,8 15 8 Z 1015,2 10
23.07.2019 15:00:00 19,7 16,3 11 6 ZZO 1015,1 10
23.07.2019 14:00:00 18,9 15,7 13 7 ZZO 1015,0 10
23.07.2019 13:00:00 19,7 15,8 15 8 Z 1014,8 10
23.07.2019 12:00:00 21,7 15,2 11 6 ZO 1014,4 10
23.07.2019 11:00:00 20,9 15,1 8 4 ZZO 1014,3 10
23.07.2019 10:00:00 20,2 15,3 5 3 - 1014,1 10
23.07.2019 09:00:00 18,5 15,6 8 4 ZZW 1013,8 10
23.07.2019 08:00:00 17,6 14,8 5 3 - 1013,3 10
23.07.2019 07:00:00 16,6 15,1 5 3 - 1013,0 10
23.07.2019 06:00:00 15,6 14,7 4 2 NNW 1012,7 10
23.07.2019 05:00:00 15,2 14,4 4 2 - 1012,9 10
23.07.2019 04:00:00 15,2 14,3 5 3 W 1012,5 10
23.07.2019 03:00:00 15,2 14,1 5 3 - 1012,7 10
23.07.2019 02:00:00 15,1 14,1 4 2 - 1012,6 10
23.07.2019 01:00:00 14,9 14,2 5 3 NNW 1012,8 10
23.07.2019 00:00:00 14,9 14,3 4 2 - 1012,8 10
22.07.2019 23:00:00 15,4 14,6 4 2 - 1012,7 10
22.07.2019 22:00:00 16,2 14,8 4 2 - 1012,5 10
22.07.2019 21:00:00 17,7 14,5 2 1 - 1012,5 10
22.07.2019 20:00:00 19,3 14,1 15 8 ZZO 1012,5 10
22.07.2019 19:00:00 21,1 13,0 15 8 ZO 1012,7 10
22.07.2019 18:00:00 22,2 13,0 15 8 Z 1012,5 10
22.07.2019 17:00:00 22,5 13,4 11 6 Z 1012,5 10
22.07.2019 16:00:00 22,6 14,3 5 3 - 1012,8 10
22.07.2019 15:00:00 21,9 15,8 8 4 ZZW 1013,4 10
22.07.2019 14:00:00 20,1 14,9 11 6 WNW 1013,6 10
22.07.2019 13:00:00 18,7 17,0 9 5 NW 1014,0 10
22.07.2019 12:00:00 17,4 16,4 11 6 NW 1014,0 10
22.07.2019 11:00:00 17,1 16,3 9 5 NNW 1014,1 10
22.07.2019 10:00:00 16,3 15,4 4 2 - 1014,1 10
22.07.2019 09:00:00 16,7 14,5 0 0 N 1014,0 10
22.07.2019 08:00:00 16,5 14,0 5 3 NW 1014,1 10
22.07.2019 07:00:00 16,4 13,5 4 2 - 1013,9 10
22.07.2019 06:00:00 15,5 13,7 5 3 NNW 1014,0 10
22.07.2019 05:00:00 14,0 12,9 8 4 NW 1014,2 10
22.07.2019 04:00:00 13,2 12,4 8 4 NW 1014,2 10
22.07.2019 03:00:00 13,0 12,7 5 3 NNW 1014,3 10
22.07.2019 02:00:00 13,0 12,8 5 3 NNW 1014,4 4,9
22.07.2019 01:00:00 13,7 13,4 8 4 N 1014,3 10
22.07.2019 00:00:00 14,5 13,8 8 4 NNW 1014,1 10
21.07.2019 23:00:00 15,3 14,0 8 4 O 1013,8 10
21.07.2019 22:00:00 16,1 13,6 8 4 O 1013,6 10
21.07.2019 21:00:00 17,4 13,4 9 5 O 1013,4 10
21.07.2019 20:00:00 19,5 13,3 11 6 OZO 1013,6 10
21.07.2019 19:00:00 19,8 13,4 16 9 ZO 1013,9 10
21.07.2019 18:00:00 20,1 13,1 22 12 ZO 1014,0 10
21.07.2019 17:00:00 20,1 10,5 24 13 ZZO 1014,5 10
21.07.2019 16:00:00 20,7 9,8 22 12 ZO 1014,7 10
21.07.2019 15:00:00 20,7 11,7 22 12 ZO 1014,9 10
21.07.2019 14:00:00 21,0 12,7 18 10 ZO 1014,9 10
21.07.2019 13:00:00 19,8 10,8 22 12 ZO 1014,9 10
21.07.2019 12:00:00 20,8 12,9 22 12 ZO 1015,1 10
21.07.2019 11:00:00 20,4 11,6 22 12 ZO 1015,1 10
21.07.2019 10:00:00 20,4 12,0 15 8 ZO 1014,8 10
21.07.2019 09:00:00 19,4 13,4 11 6 ZO 1014,7 10
21.07.2019 08:00:00 17,4 13,8 4 2 - 1014,8 10
21.07.2019 07:00:00 15,0 13,1 4 2 - 1014,8 10
21.07.2019 06:00:00 12,8 11,4 5 3 - 1015,1 10
21.07.2019 05:00:00 11,4 10,7 5 3 - 1014,9 10
21.07.2019 04:00:00 11,2 10,5 5 3 NNW 1015,0 10
21.07.2019 03:00:00 11,4 10,7 9 5 NW 1015,1 10
21.07.2019 02:00:00 11,3 10,7 5 3 WNW 1015,2 10
21.07.2019 01:00:00 11,7 11,1 5 3 WNW 1015,4 10
21.07.2019 00:00:00 12,2 11,6 5 3 - 1015,5 10
20.07.2019 23:00:00 13,7 12,4 8 4 O 1015,5 10
20.07.2019 22:00:00 15,7 11,7 9 5 O 1015,3 10
20.07.2019 21:00:00 16,7 11,4 15 8 OZO 1015,2 10
20.07.2019 20:00:00 18,5 11,4 18 10 ZO 1014,9 10
20.07.2019 19:00:00 19,5 11,1 21 11 ZO 1015,0 10
20.07.2019 18:00:00 19,8 10,6 16 9 ZO 1015,3 10
20.07.2019 17:00:00 20,4 9,4 18 10 ZO 1015,2 10
20.07.2019 16:00:00 20,9 9,1 21 11 ZZO 1015,2 10
20.07.2019 15:00:00 21,4 9,3 18 10 ZZO 1015,5 10
20.07.2019 14:00:00 21,4 13,2 21 11 Z 1015,4 10
20.07.2019 13:00:00 21,0 13,3 18 10 ZZO 1015,4 10
20.07.2019 12:00:00 21,1 14,2 11 6 ZZO 1015,5 10
20.07.2019 11:00:00 19,2 14,5 5 3 Z 1015,3 10
20.07.2019 10:00:00 18,1 13,2 4 2 - 1015,2 10
20.07.2019 09:00:00 15,9 12,7 4 2 - 1015,4 10
20.07.2019 08:00:00 15,3 12,3 5 3 WNW 1015,2 10
20.07.2019 07:00:00 13,1 10,9 5 3 NW 1015,0 10
20.07.2019 06:00:00 12,8 10,9 8 4 NW 1014,9 10
20.07.2019 05:00:00 12,0 10,8 5 3 NNW 1014,8 10
20.07.2019 04:00:00 11,7 10,3 8 4 WNW 1014,7 10
20.07.2019 03:00:00 11,3 10,4 5 3 WNW 1014,5 10
20.07.2019 02:00:00 10,7 10,1 4 2 - 1014,4 10
20.07.2019 01:00:00 11,5 10,6 5 3 NW 1014,3 10
20.07.2019 00:00:00 12,8 11,4 4 2 - 1014,3 10
19.07.2019 23:00:00 13,1 10,5 5 3 O 1014,1 10
19.07.2019 22:00:00 14,1 10,0 8 4 O 1013,9 10
19.07.2019 21:00:00 14,9 11,0 9 5 ZO 1013,5 10
19.07.2019 20:00:00 17,1 11,2 11 6 ZO 1013,5 10
19.07.2019 19:00:00 17,6 11,8 11 6 ZZO 1013,8 10
19.07.2019 18:00:00 18,6 10,9 15 8 ZZO 1013,7 10
19.07.2019 17:00:00 19,1 9,7 13 7 OZO 1013,5 10
19.07.2019 16:00:00 19,5 9,2 16 9 ZO 1013,6 10
19.07.2019 15:00:00 19,5 9,3 16 9 ZO 1013,6 10
19.07.2019 14:00:00 19,8 9,0 16 9 ZZO 1013,8 10
19.07.2019 13:00:00 19,7 10,8 18 10 ZZO 1013,9 10
19.07.2019 12:00:00 19,1 10,9 16 9 Z 1013,9 10
19.07.2019 11:00:00 18,3 10,9 13 7 ZZO 1014,0 10
19.07.2019 10:00:00 17,6 11,1 11 6 ZZO 1014,1 10
19.07.2019 09:00:00 17,0 11,9 8 4 ZZO 1014,2 10
19.07.2019 08:00:00 14,6 11,7 4 2 - 1014,3 10
19.07.2019 07:00:00 11,6 11,6 5 3 NNW 1014,1 10
19.07.2019 06:00:00 9,9 9,9 5 3 NW 1014,2 0,4
19.07.2019 05:00:00 9,5 9,5 5 3 WNW 1014,2 0,2
19.07.2019 04:00:00 9,9 9,9 5 3 NNW 1014,2 0,2
19.07.2019 03:00:00 10,1 10,1 5 3 NNW 1014,3 0,2
19.07.2019 02:00:00 10,8 10,8 5 3 NNW 1014,2 0,2
19.07.2019 01:00:00 10,5 10,4 4 2 N 1014,3 0,6
19.07.2019 00:00:00 11,1 11,0 4 2 - 1014,2 8
18.07.2019 23:00:00 11,2 10,8 8 4 O 1014,3 10
18.07.2019 22:00:00 11,9 11,3 11 6 ZZO 1013,9 10
18.07.2019 21:00:00 12,9 11,9 11 6 ZZO 1013,5 10
18.07.2019 20:00:00 14,1 11,3 13 7 Z 1013,5 10
18.07.2019 19:00:00 15,8 11,6 15 8 Z 1013,5 10
18.07.2019 18:00:00 16,3 11,3 16 9 Z 1013,5 10
18.07.2019 17:00:00 16,5 11,0 15 8 ZZO 1013,7 10
18.07.2019 16:00:00 15,1 12,1 18 10 ZZO 1013,9 10
18.07.2019 15:00:00 16,8 12,2 16 9 ZZO 1013,8 10
18.07.2019 14:00:00 17,3 12,7 16 9 ZZO 1013,8 10
18.07.2019 13:00:00 16,4 12,0 18 10 Z 1013,9 10
18.07.2019 12:00:00 15,2 11,7 16 9 Z 1014,0 10
18.07.2019 11:00:00 15,1 11,9 11 6 ZZO 1013,7 10
18.07.2019 10:00:00 14,1 11,3 9 5 Z 1013,7 10
18.07.2019 09:00:00 12,9 11,5 5 3 O 1013,8 10
18.07.2019 08:00:00 11,6 10,9 9 5 O 1013,7 10
18.07.2019 07:00:00 10,3 10,2 8 4 ONO 1013,7 10
18.07.2019 06:00:00 9,9 9,9 5 3 NNO 1013,6 1,2
18.07.2019 05:00:00 9,8 9,8 8 4 O 1013,4 0,7
18.07.2019 04:00:00 10,3 10,3 5 3 O 1013,1 10
18.07.2019 03:00:00 10,3 10,3 5 3 N 1013,1 0,9
18.07.2019 02:00:00 9,8 9,6 2 1 - 1013,1 8
18.07.2019 01:00:00 9,9 9,6 2 1 - 1012,9 0,4
18.07.2019 00:00:00 11,1 10,6 4 2 - 1012,5 10

tt = temperatuur
td = dauwpunt
ff = windsnelheid
dd = windrichting
ppp = luchtdruk
vv = zicht

Weerstations in de omgeving